Location: Kitt Peak
(31.9633°N, 111.6000°W)
Time: 22:37:29
(UTC-07:00)

Amateur Radio Satellites - All Passes

Search period start: 31 January 2015 22:07
Search period end: 01 February 2015 22:07
Location: Kitt Peak, 31.9633°N, 111.6000°W

Satellite Date Start Highest point End Downlink Frequencies (MHz)
Time Altitude Azimuth
UWE-3 31 Jan 22:11:50 22:16:22 50° 261° (W) 22:20:56 435.000/436.395/437.385
Oscar 11 31 Jan 22:12:38 22:16:18 26° 264° (W) 22:19:54 145.826/435.025
AISAT 31 Jan 22:15:02 22:19:26 62° 75° (ENE) 22:23:52 437.250
CINEMA 3 31 Jan 22:22:49 22:26:28 20° 267° (W) 22:30:02 145.822/145.860
QB50P2 31 Jan 22:27:16 22:29:51 16° 93° (E) 22:32:37 145.880/145.840
ESTCUBE 1 31 Jan 22:27:30 22:31:30 33° 73° (ENE) 22:35:34 437.505/2401.250
ANTELSAT 31 Jan 22:27:56 22:31:44 29° 96° (E) 22:35:31 437.575/2403.000
BUGSAT 1 31 Jan 22:32:39 22:34:42 14° 92° (E) 22:36:57 437.445
TIGRISAT 31 Jan 22:33:51 22:37:48 33° 97° (E) 22:41:43 435.000
QB50P1 31 Jan 22:35:09 22:38:15 20° 94° (E) 22:41:27 145.935-145.965
CUBEBUG 1 31 Jan 22:41:34 22:45:41 44° 75° (ENE) 22:49:53 437.445
VELOX 1 31 Jan 22:41:46 22:46:09 63° 259° (W) 22:50:34 145.980
HUMSAT D 31 Jan 22:49:54 22:53:58 38° 262° (W) 22:58:02 437.325/437.525
UKube-1 31 Jan 22:50:27 22:53:23 17° 266° (W) 22:56:08 .
POLYITAN 1 31 Jan 22:51:19 22:55:09 32° 97° (E) 22:59:01 437.675
AIST 1 31 Jan 23:06:46 23:10:54 41° 267° (W) 23:15:00
POPSAT HIP 1 31 Jan 23:09:27 23:13:41 53° 100° (E) 23:17:52 437.405
DUCHIFAT 1 31 Jan 23:10:21 23:14:34 54° 100° (E) 23:18:45 145.980
ZACube-1 31 Jan 23:11:53 23:14:07 13° 269° (W) 23:16:05 437.345
UNISAT 6 31 Jan 23:28:02 23:32:17 48° 285° (WNW) 23:36:25 437.425
SRMSAT 31 Jan 23:28:57 23:29:50 10° 198° (SSW) 23:30:34 437.500
50 SAT 31 Jan 23:36:43 23:38:59 14° 268° (W) 23:41:03 437.505
NANOSAT C BR1 31 Jan 23:45:41 23:49:52 51° 285° (WNW) 23:54:00 145.865
SPROUT 31 Jan 23:51:09 23:55:24 66° 77° (ENE) 23:59:43 437.525
QB50P2 01 Feb 00:02:02 00:05:54 32° 287° (WNW) 00:09:40 145.880/145.840
ANTELSAT 01 Feb 00:05:18 00:08:22 18° 290° (WNW) 00:11:16 437.575/2403.000
ESTCUBE 1 01 Feb 00:05:32 00:08:31 17° 267° (W) 00:11:19 437.505/2401.250
BUGSAT 1 01 Feb 00:06:24 00:10:23 38° 286° (WNW) 00:14:20 437.445
QB50P1 01 Feb 00:10:31 00:14:08 26° 288° (WNW) 00:17:40 145.935-145.965
TIGRISAT 01 Feb 00:11:32 00:14:19 16° 290° (WNW) 00:16:53 435.000
TISAT 1 01 Feb 00:18:10 00:22:20 56° 260° (W) 00:26:31 437.305
CUBEBUG 1 01 Feb 00:20:41 00:22:23 12° 269° (W) 00:23:47 437.445
GONETS M04 01 Feb 00:22:55 00:30:13 32° 87° (E) 00:37:44
POLYITAN 1 01 Feb 00:28:04 00:30:53 17° 290° (WNW) 00:33:32 437.675
SWISSCUBE 01 Feb 00:28:44 00:32:33 25° 71° (ENE) 00:36:30 437.505
BEESAT 01 Feb 00:43:29 00:47:43 34° 73° (ENE) 00:52:02 436.000
POPSAT HIP 1 01 Feb 00:48:24 00:49:10 10° 292° (WNW) 00:49:39 437.405
ITUPSAT 1 01 Feb 00:49:08 00:53:31 38° 73° (ENE) 00:57:56 437.325
DUCHIFAT 1 01 Feb 00:49:32 00:50:01 10° 292° (WNW) 00:50:12 145.980
Oscar 19 01 Feb 00:49:53 00:52:46 16° 92° (E) 00:55:55 437.125/150
BEESAT 2 01 Feb 00:57:12 01:00:43 29° 112° (ESE) 01:04:21 435.950
BEESAT 3 01 Feb 01:07:48 01:11:41 46° 114° (ESE) 01:15:40 437.485
AIST 2 01 Feb 01:09:55 01:12:19 15° 110° (ESE) 01:14:56 435.215
STARS 01 Feb 01:40:53 01:43:28 16° 70° (ENE) 01:46:16 437.465
O/OREOS (USA 219) 01 Feb 01:51:41 01:56:10 51° 69° (ENE) 02:00:39 437.305
KKS-1 01 Feb 01:52:31 01:56:33 34° 73° (ENE) 02:00:38 437.445
SWISSCUBE 01 Feb 02:06:25 02:10:23 25° 264° (W) 02:14:15 437.505
GONETS M04 01 Feb 02:18:30 02:26:50 45° 283° (WNW) 02:35:03
BEESAT 01 Feb 02:22:16 02:25:41 19° 266° (W) 02:28:57 436.000
Gurwin Techsat 1B 01 Feb 02:25:55 02:30:42 34° 97° (E) 02:35:32 435.225
Oscar 19 01 Feb 02:27:30 02:32:26 46° 287° (WNW) 02:37:18 437.125/150
ITUPSAT 1 01 Feb 02:28:29 02:31:36 17° 267° (W) 02:34:30 437.325
BEESAT 2 01 Feb 02:35:55 02:38:59 19° 307° (NW) 02:42:00 435.950
RS-15 01 Feb 02:38:49 02:44:47 18° 104° (ESE) 02:51:36 29.354- 29.394
AIST 2 01 Feb 02:46:44 02:50:40 36° 303° (WNW) 02:54:38 435.215
BEESAT 3 01 Feb 02:48:01 02:50:08 13° 311° (NW) 02:52:05 437.485
ITAMSAT 1 01 Feb 02:50:07 02:55:23 88° 284° (WNW) 03:00:37 435.822/435.867
DANDE 01 Feb 02:52:37 02:58:12 21° 86° (E) 03:04:27 436.750
M-CUBED/EXP-1 PRIME 01 Feb 02:56:32 03:00:36 75° 72° (ENE) 03:04:21 437.505
CUSAT 1 01 Feb 03:03:56 03:10:43 31° 89° (E) 03:17:55 437.405
PCSat 01 Feb 03:13:41 03:18:46 44° 111° (ESE) 03:23:55 145.827
STARS 01 Feb 03:15:34 03:19:41 37° 262° (W) 03:23:49 437.465
AO-7 01 Feb 03:17:46 03:23:17 20° 93° (E) 03:29:13 29.400- 29.500
AUBIESAT-1 01 Feb 03:27:16 03:31:11 46° 255° (WSW) 03:34:48 437.475
KKS-1 01 Feb 03:30:22 03:33:19 17° 267° (W) 03:36:06 437.445
O/OREOS (USA 219) 01 Feb 03:33:47 03:35:12 11° 260° (W) 03:36:16 437.305
HORYU 2 01 Feb 03:39:19 03:43:42 60° 101° (E) 03:48:04 437.375
MOZHAYETS 4 01 Feb 03:54:03 03:57:50 26° 72° (ENE) 04:01:41
ISS 01 Feb 03:59:46 04:02:54 41° 41° (NE) 04:06:02 145.825
Gurwin Techsat 1B 01 Feb 04:06:19 04:10:31 23° 290° (WNW) 04:14:34 435.225
JAS-2 01 Feb 04:21:37 04:26:52 31° 97° (E) 04:32:49 435.910
DANDE 01 Feb 04:32:48 04:40:57 74° 279° (W) 04:49:40 436.750
RS-15 01 Feb 04:45:05 04:56:04 87° 296° (WNW) 05:07:06 29.354- 29.394
CUSAT 1 01 Feb 04:45:30 04:53:27 52° 283° (WNW) 05:01:34 437.405
PCSat 01 Feb 04:58:19 05:02:26 21° 306° (NW) 05:06:25 145.827
AO-7 01 Feb 05:08:31 05:16:47 70° 289° (WNW) 05:24:59 29.400- 29.500
Cubesat XI-IV 01 Feb 05:22:06 05:22:17 10° 89° (E) 05:22:56 437.490
VERMONT LUNAR 01 Feb 05:23:44 05:24:52 11° 140° (SE) 05:26:08 437.305
MOZHAYETS 4 01 Feb 05:31:23 05:35:02 22° 265° (W) 05:38:34
ISS 01 Feb 05:37:36 05:39:08 12° 233° (SW) 05:40:32 145.825
CUTE-I 01 Feb 05:38:24 05:41:37 17° 92° (E) 05:45:06 437.470
STRAND 1 01 Feb 05:41:58 05:45:40 21° 69° (ENE) 05:49:32 437.568
CUBESAT XI-V 01 Feb 05:55:03 05:59:17 38° 74° (ENE) 06:03:34 437.345
JAS-2 01 Feb 06:06:37 06:11:57 34° 287° (WNW) 06:17:45 435.910
PRISM 01 Feb 06:13:02 06:17:09 82° 257° (WSW) 06:21:16 437.425
DANDE 01 Feb 06:21:54 06:26:02 13° 298° (WNW) 06:29:28 436.750
YUBILEINY 01 Feb 06:31:04 06:39:35 54° 79° (E) 06:48:11 435.215
PHONESAT 2.4 01 Feb 06:39:55 06:43:01 28° 145° (SE) 06:46:11 2401.200-2431.200
Cubesat XI-IV 01 Feb 06:57:38 07:03:01 74° 285° (WNW) 07:08:23 437.490
VERMONT LUNAR 01 Feb 06:59:10 07:02:37 84° 156° (SSE) 07:06:06 437.305
RS-15 01 Feb 07:02:06 07:10:19 22° 322° (NW) 07:18:11 29.354- 29.394
AO-7 01 Feb 07:05:23 07:08:21 12° 305° (NW) 07:10:41 29.400- 29.500
CUTE-I 01 Feb 07:16:49 07:22:00 48° 287° (WNW) 07:27:07 437.470
STRAND 1 01 Feb 07:20:01 07:24:41 35° 263° (W) 07:29:19 437.568
CUBESAT XI-V 01 Feb 07:34:07 07:36:56 15° 268° (W) 07:39:33 437.345
BRITE-PL 01 Feb 08:10:54 08:15:15 24° 92° (E) 08:19:33 437.365/2234.400
CUTE 1.7 + AOD 2 01 Feb 08:16:43 08:18:45 14° 92° (E) 08:21:00 437.475
PHONESAT 2.4 01 Feb 08:18:00 08:21:29 47° 338° (NNW) 08:24:59 2401.200-2431.200
YUBILEINY 01 Feb 08:28:55 08:36:00 27° 274° (W) 08:42:45 435.215
VERMONT LUNAR 01 Feb 08:38:01 08:40:59 25° 347° (NNW) 08:43:57 437.305
SEEDS 01 Feb 08:41:32 08:44:52 23° 95° (E) 08:48:16 437.485
CINEMA 3 01 Feb 08:47:25 08:48:54 12° 89° (E) 08:50:40 145.822/145.860
COMPASS 1 01 Feb 09:02:49 09:06:38 35° 98° (E) 09:10:27 437.405
SO-50 01 Feb 09:10:55 09:15:14 49° 115° (ESE) 09:19:45 436.795
HO-68 01 Feb 09:12:15 09:19:24 70° 103° (ESE) 09:26:33 435.675
DOVE 4 01 Feb 09:22:52 09:27:55 64° 100° (E) 09:32:38 437.250
ANTELSAT 01 Feb 09:23:05 09:26:03 17° 70° (ENE) 09:29:10 437.575/2403.000
AAUSAT CUBESAT 2 01 Feb 09:26:16 09:30:22 62° 100° (E) 09:34:28 437.432
GOMX 1 01 Feb 09:26:29 09:31:49 82° 283° (WNW) 09:36:48 467.674
CANX-2 01 Feb 09:27:04 09:31:16 65° 283° (WNW) 09:35:25 2200.000
TIGRISAT 01 Feb 09:28:29 09:31:43 19° 71° (ENE) 09:35:07 435.000
ZACube-1 01 Feb 09:29:08 09:30:50 12° 91° (E) 09:32:47 437.345
DX 1 01 Feb 09:31:34 09:34:18 17° 93° (E) 09:37:12 434.975-435.025
CUBEBUG 2 01 Feb 09:35:02 09:38:33 23° 94° (E) 09:42:04 437.445
FUNcube-1 01 Feb 09:39:04 09:41:45 17° 92° (E) 09:44:34 145.935
POLYITAN 1 01 Feb 09:41:25 09:43:36 14° 70° (ENE) 09:46:00 437.675
BRITE-PL 01 Feb 09:48:48 09:53:50 35° 288° (WNW) 09:58:33 437.365/2234.400
CUTE 1.7 + AOD 2 01 Feb 09:50:59 09:54:52 36° 286° (WNW) 09:58:42 437.475
PHONESAT 2.4 01 Feb 09:57:43 10:00:34 21° 355° (N) 10:03:24 2401.200-2431.200
POPSAT HIP 1 01 Feb 09:58:25 10:01:40 22° 72° (ENE) 10:05:03 437.405
DUCHIFAT 1 01 Feb 09:59:00 10:02:14 22° 72° (ENE) 10:05:37 145.980
Oscar 11 01 Feb 10:04:06 10:08:25 82° 102° (ESE) 10:12:42 145.826/435.025
UWE-3 01 Feb 10:07:14 10:11:30 48° 99° (E) 10:15:39 435.000/436.395/437.385
AISAT 01 Feb 10:12:07 10:15:08 18° 94° (E) 10:18:18 437.250
VERMONT LUNAR 01 Feb 10:17:07 10:19:45 20° 4° (N) 10:22:25 437.305
SEEDS 01 Feb 10:17:24 10:20:36 21° 288° (WNW) 10:23:42 437.485
UNISAT 6 01 Feb 10:21:31 10:26:14 80° 76° (ENE) 10:30:56 437.425
CINEMA 3 01 Feb 10:21:58 10:26:33 50° 285° (WNW) 10:30:54 145.822/145.860
ESTCUBE 1 01 Feb 10:28:00 10:28:36 10° 90° (E) 10:29:33 437.505/2401.250
NANOSAT C BR1 01 Feb 10:33:22 10:37:34 60° 76° (ENE) 10:41:48 145.865
CUBEBUG 1 01 Feb 10:37:20 10:39:11 13° 91° (E) 10:41:19 437.445
DELFI C3 01 Feb 10:37:29 10:41:20 43° 285° (WNW) 10:45:10 145.870
VELOX 1 01 Feb 10:37:38 10:41:45 35° 98° (E) 10:45:52 145.980
HUMSAT D 01 Feb 10:39:15 10:43:18 48° 99° (E) 10:47:19 437.325/437.525
COMPASS 1 01 Feb 10:39:48 10:42:05 14° 290° (WNW) 10:44:11 437.405
UKube-1 01 Feb 10:41:22 10:45:43 69° 283° (WNW) 10:50:02 .
GONETS M04 01 Feb 10:44:02 10:44:07 10° 62° (ENE) 10:45:08
QB50P2 01 Feb 10:49:38 10:53:56 82° 257° (WSW) 10:58:15 145.880/145.840
BUGSAT 1 01 Feb 10:51:26 10:55:31 76° 76° (ENE) 10:59:40 437.445
SO-50 01 Feb 10:53:17 10:56:09 16° 312° (NW) 10:58:54 436.795
QB50P1 01 Feb 10:57:47 11:02:02 65° 259° (W) 11:06:18 145.935-145.965
ANTELSAT 01 Feb 10:58:11 11:02:36 38° 262° (W) 11:06:58 437.575/2403.000
BEESAT 2 01 Feb 10:59:00 11:03:07 59° 60° (ENE) 11:07:09 435.950
HO-68 01 Feb 11:01:45 11:06:33 19° 297° (WNW) 11:11:00 435.675
DOVE 4 01 Feb 11:03:15 11:05:06 12° 294° (WNW) 11:06:36 437.250
ZACube-1 01 Feb 11:03:24 11:07:31 40° 286° (WNW) 11:11:29 437.345
TIGRISAT 01 Feb 11:03:59 11:08:17 34° 263° (W) 11:12:31 435.000
DX 1 01 Feb 11:06:43 11:10:40 33° 287° (WNW) 11:14:34 434.975-435.025
BEESAT 3 01 Feb 11:09:31 11:13:40 87° 243° (WSW) 11:17:44 437.485
CUBEBUG 2 01 Feb 11:11:37 11:15:12 23° 289° (WNW) 11:18:36 437.445
AIST 2 01 Feb 11:13:09 11:17:00 32° 56° (ENE) 11:20:49 435.215
FUNcube-1 01 Feb 11:14:23 11:18:14 31° 287° (WNW) 11:21:56 145.935
POLYITAN 1 01 Feb 11:15:13 11:19:16 38° 262° (W) 11:23:18 437.675
50 SAT 01 Feb 11:18:54 11:22:54 69° 283° (WNW) 11:26:51 437.505
AIST 1 01 Feb 11:31:05 11:35:14 53° 278° (W) 11:39:25
POPSAT HIP 1 01 Feb 11:34:00 11:37:30 24° 265° (W) 11:40:56 437.405
DUCHIFAT 1 01 Feb 11:34:33 11:38:02 23° 265° (W) 11:41:26 145.980
PHONESAT 2.4 01 Feb 11:36:46 11:39:49 25° 12° (NNE) 11:42:55 2401.200-2431.200
RS-15 01 Feb 11:41:31 11:48:31 18° 34° (NNE) 11:56:14 29.354- 29.394
SPROUT 01 Feb 11:44:04 11:46:51 17° 93° (E) 11:49:47 437.525
UWE-3 01 Feb 11:45:58 11:47:39 12° 292° (WNW) 11:49:04 435.000/436.395/437.385
AISAT 01 Feb 11:47:49 11:51:50 32° 288° (WNW) 11:55:47 437.250
VERMONT LUNAR 01 Feb 11:55:04 11:58:24 40° 20° (NNE) 12:01:45 437.305
ESTCUBE 1 01 Feb 12:01:26 12:05:53 54° 284° (WNW) 12:10:18 437.505/2401.250
Oscar 19 01 Feb 12:02:37 12:05:22 15° 68° (ENE) 12:08:21 437.125/150
PCSat 01 Feb 12:08:02 12:10:44 14° 50° (NE) 12:13:41 145.827
TISAT 1 01 Feb 12:08:12 12:12:03 32° 97° (E) 12:15:55 437.305
CUBEBUG 1 01 Feb 12:11:36 12:15:51 43° 285° (WNW) 12:20:02 437.445
VELOX 1 01 Feb 12:15:09 12:18:05 17° 290° (WNW) 12:20:51 145.980
HUMSAT D 01 Feb 12:17:40 12:18:43 11° 291° (WNW) 12:19:29 437.325/437.525
GONETS M04 01 Feb 12:34:08 12:42:50 73° 82° (E) 12:51:31
BEESAT 01 Feb 12:50:22 12:52:24 13° 91° (E) 12:54:44 436.000
AIST 2 01 Feb 12:52:33 12:55:23 17° 250° (WSW) 12:58:03 435.215
ITUPSAT 1 01 Feb 12:56:02 12:58:38 15° 92° (E) 13:01:30 437.325
PHONESAT 2.4 01 Feb 13:15:04 13:18:42 85° 27° (NNE) 13:22:21 2401.200-2431.200
SPROUT 01 Feb 13:19:11 13:23:02 31° 287° (WNW) 13:26:49 437.525
VERMONT LUNAR 01 Feb 13:33:16 13:36:28 33° 214° (SW) 13:39:40 437.305
Oscar 19 01 Feb 13:39:15 13:44:19 53° 260° (W) 13:49:24 437.125/150
Gurwin Techsat 1B 01 Feb 13:42:19 13:47:01 34° 72° (ENE) 13:51:49 435.225
TISAT 1 01 Feb 13:44:53 13:47:40 16° 290° (WNW) 13:50:15 437.305
PCSat 01 Feb 13:49:22 13:54:46 70° 248° (WSW) 14:00:08 145.827
RS-15 01 Feb 13:52:13 14:03:38 69° 59° (ENE) 14:15:36 29.354- 29.394
ITAMSAT 1 01 Feb 14:03:12 14:08:22 86° 73° (ENE) 14:13:35 435.822/435.867
SWISSCUBE 01 Feb 14:10:46 14:15:32 67° 284° (WNW) 14:20:17 437.505
AO-7 01 Feb 14:12:29 14:17:49 20° 60° (ENE) 14:23:33 29.400- 29.500
O/OREOS (USA 219) 01 Feb 14:23:50 14:24:19 10° 100° (E) 14:25:09 437.305
BEESAT 01 Feb 14:25:59 14:30:36 49° 286° (WNW) 14:35:11 436.000
ITUPSAT 1 01 Feb 14:32:14 14:36:47 43° 287° (WNW) 14:41:18 437.325
HORYU 2 01 Feb 14:33:18 14:37:12 30° 73° (ENE) 14:41:11 437.375
GONETS M04 01 Feb 14:33:19 14:38:56 18° 276° (W) 14:44:01
PHONESAT 2.4 01 Feb 14:54:51 14:56:59 15° 219° (SW) 14:59:01 2401.200-2431.200
STARS 01 Feb 15:10:07 15:14:31 59° 101° (E) 15:18:52 437.465
JUGNU 01 Feb 15:11:47 15:15:20 17° 167° (SSE) 15:18:58 437.505
AUBIESAT-1 01 Feb 15:14:21 15:16:13 14° 100° (E) 15:18:17 437.475
Gurwin Techsat 1B 01 Feb 15:22:51 15:27:05 23° 266° (W) 15:31:10 435.225
KKS-1 01 Feb 15:24:45 15:29:09 57° 285° (WNW) 15:33:31 437.445
DANDE 01 Feb 15:25:22 15:31:08 76° 81° (E) 15:35:17 436.750
CUSAT 1 01 Feb 15:35:05 15:40:17 64° 266° (W) 15:44:06 437.405
O/OREOS (USA 219) 01 Feb 15:58:58 16:03:20 52° 292° (WNW) 16:07:45 437.305
SRMSAT 01 Feb 16:00:08 16:02:31 13° 163° (SSE) 16:05:02 437.500
AO-7 01 Feb 16:01:27 16:09:51 79° 255° (WSW) 16:18:15 29.400- 29.500
RS-15 01 Feb 16:06:02 16:15:28 28° 254° (WSW) 16:24:38 29.354- 29.394
HORYU 2 01 Feb 16:10:41 16:13:56 19° 266° (W) 16:17:03 437.375
JAS-2 01 Feb 16:14:04 16:19:29 59° 75° (ENE) 16:24:37 435.910
M-CUBED/EXP-1 PRIME 01 Feb 16:17:50 16:21:09 53° 288° (WNW) 16:24:39 437.505
Cubesat XI-IV 01 Feb 16:38:58 16:40:32 12° 65° (ENE) 16:42:27 437.490
AUBIESAT-1 01 Feb 16:48:24 16:51:11 23° 290° (WNW) 16:54:00 437.475
STARS 01 Feb 16:50:14 16:50:33 10° 293° (WNW) 16:50:34 437.465
CUTE-I 01 Feb 16:55:54 16:59:15 18° 68° (ENE) 17:02:50 437.470
JUGNU 01 Feb 16:59:07 17:03:46 24° 176° (S) 17:08:28 437.505
MOZHAYETS 4 01 Feb 17:30:21 17:34:53 65° 284° (WNW) 17:39:25
SRMSAT 01 Feb 17:46:37 17:51:07 22° 172° (S) 17:55:39 437.500
SO-50 01 Feb 17:48:12 17:50:58 15° 48° (NE) 17:53:56 436.795
CUBESAT XI-V 01 Feb 17:58:03 18:00:33 15° 92° (E) 18:03:17 437.345
PRISM 01 Feb 18:01:32 18:04:36 20° 95° (E) 18:07:46 437.425
AO-7 01 Feb 18:01:34 18:03:59 11° 272° (W) 18:05:30 29.400- 29.500
JAS-2 01 Feb 18:02:56 18:05:04 12° 268° (W) 18:06:44 435.910
Cubesat XI-IV 01 Feb 18:14:48 18:20:06 72° 258° (WSW) 18:25:27 437.490
CUTE-I 01 Feb 18:33:55 18:39:01 47° 261° (W) 18:44:08 437.470
JUGNU 01 Feb 18:47:39 18:52:15 23° 186° (S) 18:56:52 437.505
ISS 01 Feb 19:01:22 19:02:54 13° 127° (SE) 19:04:34 145.825
BRITE-PL 01 Feb 19:17:23 19:20:31 17° 67° (ENE) 19:24:01 437.365/2234.400
YUBILEINY 01 Feb 19:25:24 19:34:00 72° 94° (E) 19:42:41 435.215
SO-50 01 Feb 19:27:07 19:31:59 60° 245° (WSW) 19:36:48 436.795
CUBESAT XI-V 01 Feb 19:33:47 19:38:14 42° 286° (WNW) 19:42:39 437.345
SRMSAT 01 Feb 19:34:57 19:39:46 25° 182° (S) 19:44:36 437.500
STRAND 1 01 Feb 19:34:57 19:40:06 71° 284° (WNW) 19:45:13 437.568
HO-68 01 Feb 19:36:07 19:42:11 32° 67° (ENE) 19:48:23 435.675
PRISM 01 Feb 19:36:40 19:40:05 24° 288° (WNW) 19:43:25 437.425
COMPASS 1 01 Feb 19:51:14 19:53:23 14° 70° (ENE) 19:55:44 437.405
AAUSAT CUBESAT 2 01 Feb 20:13:20 20:16:36 23° 72° (ENE) 20:19:57 437.432
CANX-2 01 Feb 20:15:12 20:19:19 46° 75° (ENE) 20:23:26 2200.000
DOVE 4 01 Feb 20:23:05 20:27:44 39° 73° (ENE) 20:32:38 437.250
GOMX 1 01 Feb 20:28:50 20:33:51 64° 76° (ENE) 20:39:12 467.674
CUBEBUG 2 01 Feb 20:29:53 20:32:02 13° 69° (ENE) 20:34:27 437.445
ISS 01 Feb 20:36:03 20:39:08 38° 319° (NW) 20:42:13 145.825
JUGNU 01 Feb 20:37:30 20:40:43 15° 195° (SSW) 20:43:51 437.505
CUTE 1.7 + AOD 2 01 Feb 20:38:34 20:42:51 84° 78° (ENE) 20:47:09 437.475
BRITE-PL 01 Feb 20:53:42 20:58:34 49° 262° (W) 21:03:50 437.365/2234.400
Oscar 11 01 Feb 20:54:19 20:58:12 33° 74° (ENE) 21:02:08 145.826/435.025
UWE-3 01 Feb 20:59:55 21:03:37 24° 72° (ENE) 21:07:26 435.000/436.395/437.385
SEEDS 01 Feb 21:03:48 21:07:59 55° 260° (W) 21:12:10 437.485
CINEMA 3 01 Feb 21:17:49 21:22:46 84° 75° (ENE) 21:27:50 145.822/145.860
DELFI C3 01 Feb 21:20:37 21:24:36 55° 76° (ENE) 21:28:36 145.870
HO-68 01 Feb 21:23:06 21:29:46 40° 261° (W) 21:36:22 435.675
SRMSAT 01 Feb 21:24:16 21:28:25 19° 191° (SSW) 21:32:30 437.500
COMPASS 1 01 Feb 21:24:55 21:28:51 36° 262° (W) 21:32:44 437.405
YUBILEINY 01 Feb 21:25:43 21:31:47 19° 292° (WNW) 21:37:21 435.215
HUMSAT D 01 Feb 21:27:21 21:30:27 20° 71° (ENE) 21:33:40 437.325/437.525
UKube-1 01 Feb 21:31:32 21:35:44 52° 74° (ENE) 21:39:58 .
VELOX 1 01 Feb 21:31:47 21:34:44 18° 70° (ENE) 21:37:51 145.980
AIST 1 01 Feb 21:43:52 21:47:14 22° 76° (ENE) 21:50:44
AAUSAT CUBESAT 2 01 Feb 21:48:53 21:52:13 22° 265° (W) 21:55:26 437.432
ZACube-1 01 Feb 21:53:46 21:58:23 83° 78° (ENE) 22:03:01 437.345
CANX-2 01 Feb 21:54:15 21:55:34 11° 269° (W) 21:56:34 2200.000
DX 1 01 Feb 21:56:59 22:01:19 71° 258° (WSW) 22:05:42 434.975-435.025
